sat.trackr.live / text

‹ back to catalog

VSP RF C1

NORAD 59136 · 2024-043AQ

PAYLOAD ACTIVE UNKNOWN

§ Identity

Operator
Country
BEL
Launch date
2024-03-04
Launch site
AFWTR
Launch vehicle
Mass (kg)
RCS (m²)

External: N2YO · Heavens-Above · Gunter

§ Orbital elements

Epoch: 2026-05-25T04:17:43.372608Z

Period
94.10 min
Inclination
97.5580°
Eccentricity
0.0008822
Mean motion
15.30209224 rev/d
Perigee alt
469.1 km
Apogee alt
481.2 km
Semi-major
6,853.3 km
B*
1.4776e-4
RAAN
282.6710°
Arg perigee
323.2334°
Mean anomaly
36.8300°
Rev number
12,356

§ Raw data

VSP RF C11 59136U 24043AQ  26145.17897422  .00004243  00000+0  14776-3 0  99952 59136  97.5580 282.6710 0008822 323.2334  36.8300 15.30209224123561

JSON: /api/v1/satellites/59136 · /tle

For live sub-satellite position, see the globe view (requires WebGL).

§ Visibility from observer

Set your observer location to see the next 7 days of passes ≥ 10°. The values pass through the URL so the page stays shareable.

No JS? Fill the form by hand. The geolocation button needs JavaScript.